| time (UTC) | temp F | wind direction | speed knots | gust knots | rain 1hr in | rain 24hr in | rain mn in | humidity % | barometer mb |
| 20260510130411 | 76 | 26 | 0.0 | 0.0 | 0.00 | 1.90 | 0.00 | 94 | 1012.7 |
| 20260510130049 | 75 | 0 | 0.0 | 0.0 | 0.00 | 1.90 | 0.00 | 94 | 1012.9 |
| 20260510125907 | 76 | 26 | 0.0 | 0.0 | 0.00 | 1.90 | 0.00 | 94 | 1012.6 |
| 20260510125406 | 76 | 26 | 0.0 | 0.0 | 0.00 | 1.90 | 0.00 | 95 | 1012.5 |
| 20260510125124 | 76 | 26 | 0.0 | 0.0 | 0.00 | 1.90 | 0.00 | 95 | 1012.4 |
| 20260510124608 | 75 | 0 | 0.0 | 0.0 | 0.00 | 1.90 | 0.00 | 94 | 1012.6 |
| 20260510124404 | 76 | 26 | 0.0 | 0.0 | 0.00 | 1.90 | 0.00 | 95 | 1012.5 |
| 20260510123903 | 75 | 26 | 0.0 | 0.0 | 0.00 | 1.90 | 0.00 | 95 | 1012.3 |
| 20260510123624 | 75 | 26 | 0.0 | 0.0 | 0.00 | 1.90 | 0.00 | 95 | 1012.4 |
| 20260510123049 | 75 | 0 | 0.0 | 0.0 | 0.00 | 1.90 | 0.00 | 94 | 1012.5 |
| 20260510122902 | 75 | 26 | 0.0 | 0.0 | 0.00 | 1.90 | 0.00 | 95 | 1012.3 |
| 20260510122402 | 75 | 26 | 0.0 | 0.0 | 0.00 | 1.90 | 0.00 | 95 | 1012.4 |
| 20260510121903 | 75 | 26 | 0.0 | 0.0 | 0.00 | 1.90 | 0.00 | 95 | 1012.3 |
| 20260510121547 | 75 | 0 | 0.0 | 0.0 | 0.00 | 1.90 | 0.00 | 95 | 1012.4 |
| 20260510121402 | 75 | 26 | 0.0 | 0.0 | 0.00 | 1.90 | 0.00 | 95 | 1012.1 |
| 20260510120902 | 75 | 26 | 0.0 | 0.0 | 0.00 | 1.90 | 0.00 | 95 | 1012.1 |
| 20260510120402 | 75 | 26 | 0.0 | 0.0 | 0.00 | 1.90 | 0.00 | 95 | 1012.0 |
| 20260510120047 | 74 | 0 | 0.0 | 0.9 | 0.00 | 1.90 | 0.00 | 95 | 1012.1 |
| 20260510115903 | 75 | 26 | 0.0 | 0.0 | 0.00 | 1.90 | 0.00 | 95 | 1011.8 |
| 20260510115402 | 75 | 338 | 0.0 | 0.0 | 0.00 | 1.90 | 0.00 | 95 | 1011.7 |
| 20260510114903 | 75 | 338 | 0.0 | 0.0 | 0.00 | 1.90 | 0.00 | 95 | 1011.7 |
| 20260510114545 | 74 | 0 | 0.0 | 0.0 | 0.00 | 1.98 | 0.00 | 94 | 1011.9 |
| 20260510114402 | 75 | 338 | 0.0 | 0.0 | 0.00 | 1.90 | 0.00 | 95 | 1011.7 |
| 20260510113900 | 75 | 338 | 0.0 | 0.0 | 0.00 | 1.90 | 0.00 | 95 | 1011.6 |
| 20260510113400 | 75 | 338 | 0.0 | 0.0 | 0.00 | 1.91 | 0.00 | 95 | 1011.4 |
| 20260510113050 | 74 | 0 | 0.0 | 0.0 | 0.00 | 1.98 | 0.00 | 94 | 1011.6 |
| 20260510112902 | 75 | 338 | 0.0 | 0.0 | 0.00 | 1.91 | 0.00 | 95 | 1011.4 |
| 20260510112401 | 75 | 338 | 0.0 | 0.0 | 0.00 | 1.94 | 0.00 | 95 | 1011.3 |
| 20260510111901 | 75 | 338 | 0.0 | 0.0 | 0.00 | 1.96 | 0.00 | 95 | 1011.4 |
| 20260510111603 | 74 | 0 | 0.0 | 0.0 | 0.00 | 1.98 | 0.00 | 94 | 1011.8 |
| 20260510111401 | 75 | 338 | 0.0 | 0.0 | 0.00 | 1.97 | 0.00 | 94 | 1011.6 |
| 20260510110900 | 75 | 338 | 0.0 | 0.0 | 0.00 | 1.97 | 0.00 | 94 | 1011.4 |
| 20260510110401 | 75 | 338 | 0.0 | 0.0 | 0.00 | 1.98 | 0.00 | 94 | 1011.6 |
| 20260510110049 | 74 | 0 | 0.0 | 0.0 | 0.00 | 1.98 | 0.00 | 94 | 1011.6 |
| 20260510105903 | 75 | 338 | 0.0 | 0.0 | 0.00 | 1.98 | 0.00 | 94 | 1011.4 |
| 20260510105403 | 75 | 338 | 0.0 | 0.0 | 0.00 | 1.98 | 0.00 | 94 | 1011.3 |
| 20260510104902 | 75 | 338 | 0.0 | 0.0 | 0.00 | 1.98 | 0.00 | 94 | 1011.2 |
| 20260510104601 | 74 | 0 | 0.0 | 0.0 | 0.00 | 1.98 | 0.00 | 93 | 1011.6 |
| 20260510104402 | 75 | 338 | 0.0 | 0.0 | 0.00 | 1.98 | 0.00 | 94 | 1011.2 |
| 20260510104123 | 75 | 338 | 0.0 | 0.0 | 0.00 | 1.98 | 0.00 | 94 | 1011.3 |
| 20260510103402 | 75 | 338 | 0.0 | 0.0 | 0.00 | 1.98 | 0.00 | 94 | 1011.3 |
| 20260510103046 | 75 | 0 | 0.0 | 0.0 | 0.00 | 1.98 | 0.00 | 93 | 1011.7 |
| 20260510102902 | 75 | 338 | 0.0 | 0.0 | 0.00 | 1.98 | 0.00 | 94 | 1011.4 |
| 20260510102403 | 75 | 338 | 0.0 | 0.0 | 0.00 | 1.98 | 0.00 | 94 | 1011.2 |
| 20260510101903 | 75 | 338 | 0.0 | 0.0 | 0.00 | 1.98 | 0.00 | 94 | 1011.2 |
| 20260510101545 | 75 | 0 | 0.0 | 0.0 | 0.00 | 1.98 | 0.00 | 93 | 1011.5 |
| 20260510101402 | 75 | 338 | 0.0 | 0.0 | 0.00 | 1.98 | 0.00 | 94 | 1011.2 |
| 20260510100902 | 75 | 338 | 0.0 | 0.0 | 0.00 | 1.98 | 0.00 | 94 | 1011.3 |
| 20260510100402 | 75 | 338 | 0.0 | 0.0 | 0.00 | 1.98 | 0.00 | 94 | 1011.2 |
| 20260510100050 | 75 | 0 | 0.0 | 0.0 | 0.00 | 1.98 | 0.00 | 93 | 1011.4 |
| 20260510095903 | 75 | 338 | 0.0 | 0.0 | 0.00 | 1.98 | 0.00 | 94 | 1011.1 |
| 20260510095403 | 75 | 338 | 0.0 | 0.0 | 0.00 | 1.98 | 0.00 | 94 | 1011.1 |
| 20260510095120 | 75 | 338 | 0.0 | 0.0 | 0.00 | 1.98 | 0.00 | 94 | 1011.1 |
| 20260510094550 | 75 | 0 | 0.0 | 0.0 | 0.00 | 1.98 | 0.00 | 93 | 1011.4 |
| 20260510094403 | 75 | 338 | 0.0 | 0.0 | 0.00 | 1.98 | 0.00 | 94 | 1011.1 |
| 20260510094148 | 75 | 338 | 0.0 | 0.0 | 0.00 | 1.98 | 0.00 | 94 | 1011.1 |
| 20260510093403 | 75 | 338 | 0.0 | 0.0 | 0.00 | 1.98 | 0.00 | 94 | 1011.2 |
| 20260510093049 | 75 | 0 | 0.0 | 0.0 | 0.00 | 1.98 | 0.00 | 94 | 1011.5 |
| 20260510092903 | 75 | 338 | 0.0 | 0.0 | 0.00 | 1.98 | 0.00 | 94 | 1011.2 |
| 20260510092403 | 75 | 338 | 0.0 | 0.0 | 0.00 | 1.98 | 0.00 | 94 | 1011.2 |
| 20260510092125 | 75 | 338 | 0.0 | 0.0 | 0.00 | 1.98 | 0.00 | 94 | 1011.1 |
| 20260510091555 | 74 | 0 | 0.0 | 0.0 | 0.00 | 1.98 | 0.00 | 93 | 1011.4 |
| 20260510091400 | 75 | 338 | 0.0 | 0.0 | 0.00 | 1.98 | 0.00 | 94 | 1011.2 |
| 20260510090859 | 75 | 338 | 0.0 | 0.0 | 0.00 | 1.98 | 0.00 | 93 | 1011.3 |
| 20260510090359 | 75 | 338 | 0.0 | 0.0 | 0.00 | 1.98 | 0.00 | 93 | 1011.3 |
| 20260510085855 | 75 | 338 | 0.0 | 0.0 | 0.00 | 1.98 | 0.00 | 94 | 1011.2 |
| 20260510085354 | 75 | 338 | 0.0 | 0.0 | 0.00 | 1.98 | 0.00 | 93 | 1011.2 |
| 20260510084849 | 75 | 338 | 0.0 | 0.0 | 0.00 | 1.98 | 0.00 | 93 | 1011.2 |
| 20260510084554 | 75 | 0 | 0.0 | 0.0 | 0.00 | 1.98 | 0.00 | 93 | 1011.5 |
| 20260510084342 | 75 | 338 | 0.0 | 0.0 | 0.00 | 1.98 | 0.00 | 93 | 1011.2 |
| 20260510083836 | 75 | 338 | 0.0 | 0.0 | 0.00 | 1.98 | 0.00 | 93 | 1011.3 |
| 20260510083336 | 75 | 338 | 0.0 | 0.0 | 0.00 | 1.98 | 0.00 | 93 | 1011.4 |
| 20260510083051 | 75 | 0 | 0.0 | 0.0 | 0.00 | 1.98 | 0.00 | 93 | 1011.9 |
| 20260510082830 | 75 | 338 | 0.0 | 0.0 | 0.00 | 1.98 | 0.00 | 93 | 1011.6 |
| 20260510082329 | 75 | 338 | 0.0 | 0.0 | 0.00 | 1.98 | 0.00 | 93 | 1011.7 |
| 20260510081829 | 75 | 338 | 0.0 | 0.0 | 0.00 | 1.98 | 0.00 | 93 | 1011.8 |
| 20260510081550 | 75 | 0 | 0.0 | 0.0 | 0.00 | 1.98 | 0.00 | 92 | 1012.1 |
| 20260510081329 | 75 | 338 | 0.0 | 0.0 | 0.00 | 1.98 | 0.00 | 93 | 1011.9 |
| 20260510080829 | 75 | 338 | 0.0 | 0.0 | 0.00 | 1.98 | 0.00 | 93 | 1012.0 |
| 20260510080329 | 75 | 338 | 0.0 | 0.0 | 0.00 | 1.98 | 0.00 | 93 | 1012.1 |
| 20260510080058 | 75 | 0 | 0.0 | 0.0 | 0.00 | 1.98 | 0.00 | 92 | 1012.5 |
| 20260510075828 | 76 | 338 | 0.0 | 0.0 | 0.00 | 1.98 | 0.00 | 93 | 1012.1 |
| 20260510075329 | 76 | 338 | 0.0 | 0.0 | 0.00 | 1.98 | 0.00 | 93 | 1012.2 |
| 20260510074830 | 76 | 338 | 0.0 | 0.0 | 0.00 | 1.98 | 0.00 | 93 | 1012.3 |
| 20260510074550 | 75 | 0 | 0.0 | 0.0 | 0.00 | 1.98 | 0.00 | 92 | 1012.4 |
| 20260510074329 | 76 | 338 | 0.0 | 0.0 | 0.00 | 1.98 | 0.00 | 92 | 1012.4 |
| 20260510073829 | 76 | 338 | 0.0 | 0.0 | 0.00 | 1.98 | 0.00 | 92 | 1012.3 |
| 20260510073329 | 76 | 338 | 0.0 | 0.0 | 0.00 | 1.98 | 0.00 | 92 | 1012.2 |
| 20260510073051 | 75 | 0 | 0.0 | 0.0 | 0.00 | 1.98 | 0.00 | 92 | 1012.5 |
| 20260510072828 | 76 | 338 | 0.0 | 0.0 | 0.00 | 1.98 | 0.00 | 92 | 1012.3 |
| 20260510072331 | 76 | 338 | 0.0 | 0.0 | 0.00 | 1.98 | 0.00 | 92 | 1012.3 |
| 20260510071830 | 76 | 338 | 0.0 | 0.9 | 0.00 | 1.98 | 0.00 | 92 | 1012.3 |
| 20260510071545 | 75 | 0 | 0.0 | 0.9 | 0.00 | 1.98 | 0.00 | 92 | 1012.4 |
| 20260510071331 | 76 | 338 | 0.0 | 0.9 | 0.00 | 1.98 | 0.00 | 92 | 1012.2 |
| 20260510070830 | 76 | 142 | 0.0 | 0.9 | 0.00 | 1.98 | 0.00 | 92 | 1012.2 |
| 20260510070329 | 76 | 316 | 0.0 | 0.9 | 0.00 | 1.98 | 0.00 | 92 | 1012.2 |
| 20260510070057 | 75 | 0 | 0.0 | 0.9 | 0.00 | 1.98 | 0.00 | 92 | 1012.2 |
| 20260510065828 | 76 | 289 | 0.0 | 0.9 | 0.00 | 1.98 | 0.00 | 92 | 1012.0 |
| 20260510065329 | 76 | 230 | 0.0 | 0.0 | 0.00 | 1.98 | 0.00 | 92 | 1012.0 |
| 20260510064829 | 76 | 230 | 0.0 | 1.7 | 0.00 | 1.98 | 0.00 | 92 | 1012.1 |
| 20260510064607 | 76 | 0 | 0.0 | 2.6 | 0.00 | 1.98 | 0.00 | 91 | 1012.3 |
| 20260510064329 | 76 | 230 | 0.0 | 3.5 | 0.00 | 1.98 | 0.00 | 92 | 1012.0 |
| 20260510063828 | 76 | 224 | 0.0 | 3.5 | 0.00 | 1.98 | 0.00 | 92 | 1012.2 |
| 20260510063812 | 76 | 100 | 0.0 | 0.0 | 0.00 | 1.98 | 0.00 | 92 | 1012.1 |
| 20260510063052 | 76 | 0 | 0.0 | 0.9 | 0.00 | 1.98 | 0.00 | 91 | 1012.4 |
| 20260510062829 | 76 | 211 | 0.0 | 0.0 | 0.00 | 1.98 | 0.00 | 92 | 1012.3 |
| 20260510062330 | 76 | 205 | 0.0 | 0.0 | 0.00 | 1.98 | 0.00 | 92 | 1012.2 |
| 20260510061830 | 76 | 226 | 0.0 | 0.0 | 0.00 | 1.98 | 0.00 | 91 | 1012.1 |
| 20260510061552 | 76 | 0 | 0.0 | 0.0 | 0.00 | 1.98 | 0.00 | 91 | 1012.4 |
| 20260510061330 | 76 | 226 | 0.0 | 0.0 | 0.00 | 1.98 | 0.00 | 91 | 1012.3 |
| 20260510060831 | 76 | 226 | 0.0 | 0.9 | 0.00 | 1.98 | 0.00 | 91 | 1012.2 |
| 20260510060330 | 77 | 226 | 0.0 | 0.9 | 0.00 | 1.98 | 0.00 | 91 | 1012.4 |
| 20260510060059 | 77 | 300 | 0.0 | 0.0 | 0.00 | 1.98 | 0.00 | 91 | 1012.2 |
| 20260510060055 | 76 | 0 | 0.0 | 0.9 | 0.00 | 1.98 | 0.00 | 91 | 1012.5 |
| 20260510055329 | 77 | 283 | 0.0 | 0.0 | 0.00 | 1.98 | 0.00 | 91 | 1012.3 |
| 20260510055107 | 77 | 283 | 0.0 | 0.0 | 0.00 | 1.98 | 0.00 | 90 | 1012.4 |
| 20260510055026 | 77 | 283 | 0.0 | 0.0 | 0.00 | 1.98 | 0.00 | 91 | 1012.3 |
| 20260510054549 | 76 | 0 | 0.0 | 0.0 | 0.00 | 1.98 | 0.00 | 90 | 1012.4 |
| 20260510053828 | 77 | 283 | 0.0 | 0.0 | 0.00 | 1.98 | 0.00 | 90 | 1012.4 |
| 20260510053329 | 77 | 283 | 0.0 | 2.6 | 0.00 | 1.98 | 0.00 | 90 | 1012.4 |
| 20260510053050 | 77 | 0 | 0.0 | 1.7 | 0.00 | 1.98 | 0.00 | 89 | 1012.5 |
| 20260510052828 | 77 | 235 | 0.0 | 2.6 | 0.00 | 1.98 | 0.00 | 90 | 1012.5 |
| 20260510052330 | 77 | 56 | 0.0 | 1.7 | 0.00 | 1.98 | 0.00 | 90 | 1012.5 |
| 20260510051831 | 77 | 288 | 0.0 | 3.5 | 0.00 | 1.98 | 0.00 | 90 | 1012.5 |
| 20260510051605 | 77 | 0 | 0.0 | 3.5 | 0.00 | 1.98 | 0.00 | 89 | 1012.5 |
| 20260510051330 | 77 | 32 | 0.0 | 3.5 | 0.00 | 1.98 | 0.00 | 89 | 1012.2 |
| 20260510050830 | 77 | 26 | 0.0 | 1.7 | 0.00 | 1.98 | 0.00 | 89 | 1012.4 |
| 20260510050330 | 77 | 79 | 0.0 | 1.7 | 0.00 | 1.98 | 0.00 | 89 | 1012.3 |
| 20260510050055 | 77 | 0 | 0.0 | 1.7 | 0.00 | 1.98 | 0.00 | 89 | 1012.5 |
| 20260510045828 | 77 | 6 | 0.0 | 1.7 | 0.00 | 1.98 | 1.98 | 89 | 1012.4 |
| 20260510045328 | 77 | 250 | 0.0 | 0.0 | 0.00 | 1.98 | 1.98 | 89 | 1012.4 |
| 20260510044828 | 77 | 250 | 0.0 | 0.9 | 0.00 | 1.99 | 1.98 | 89 | 1012.4 |
| 20260510044608 | 77 | 0 | 0.0 | 0.9 | 0.00 | 2.00 | 1.98 | 88 | 1012.6 |
| 20260510044329 | 78 | 250 | 0.0 | 0.9 | 0.00 | 1.99 | 1.98 | 88 | 1012.3 |
| 20260510043829 | 78 | 144 | 0.0 | 2.6 | 0.00 | 2.00 | 1.98 | 88 | 1012.4 |
| 20260510043328 | 78 | 144 | 0.0 | 2.6 | 0.00 | 2.00 | 1.98 | 88 | 1012.5 |
| 20260510043052 | 77 | 0 | 0.0 | 0.0 | 0.00 | 2.00 | 1.98 | 87 | 1012.6 |
| 20260510042828 | 78 | 158 | 0.0 | 0.9 | 0.00 | 2.00 | 1.98 | 87 | 1012.5 |
| 20260510042331 | 78 | 159 | 0.0 | 0.0 | 0.00 | 2.00 | 1.98 | 87 | 1012.4 |
| 20260510041831 | 78 | 159 | 0.0 | 0.0 | 0.00 | 2.00 | 1.98 | 87 | 1012.5 |
| 20260510041617 | 78 | 159 | 0.0 | 0.0 | 0.00 | 2.00 | 1.98 | 86 | 1012.5 |
| 20260510041604 | 78 | 0 | 0.0 | 0.0 | 0.00 | 2.00 | 1.98 | 86 | 1012.7 |
| 20260510040830 | 78 | 72 | 0.0 | 0.0 | 0.00 | 2.00 | 1.98 | 86 | 1012.5 |
| 20260510040554 | 78 | 72 | 0.0 | 1.7 | 0.00 | 2.00 | 1.98 | 86 | 1012.4 |
| 20260510040056 | 78 | 0 | 0.0 | 0.9 | 0.00 | 2.00 | 1.98 | 85 | 1012.6 |
| 20260510035828 | 79 | 72 | 0.0 | 1.7 | 0.00 | 2.00 | 1.98 | 86 | 1012.5 |
| 20260510035329 | 79 | 336 | 0.0 | 1.7 | 0.00 | 2.00 | 1.98 | 85 | 1012.5 |
| 20260510034829 | 79 | 268 | 0.0 | 0.9 | 0.00 | 2.00 | 1.98 | 85 | 1012.4 |
| 20260510034559 | 78 | 0 | 0.0 | 1.7 | 0.00 | 2.00 | 1.98 | 85 | 1012.5 |
| 20260510034329 | 79 | 268 | 0.0 | 0.9 | 0.00 | 2.00 | 1.98 | 85 | 1012.2 |
| 20260510033829 | 79 | 246 | 0.0 | 0.0 | 0.00 | 2.00 | 1.98 | 85 | 1012.2 |
| 20260510033329 | 79 | 246 | 0.0 | 0.0 | 0.00 | 2.00 | 1.98 | 85 | 1012.0 |
| 20260510033054 | 78 | 0 | 0.0 | 0.0 | 0.00 | 2.00 | 1.98 | 84 | 1012.2 |
| 20260510033051 | 79 | 246 | 0.0 | 0.0 | 0.00 | 2.00 | 1.98 | 84 | 1012.0 |
| 20260510032331 | 79 | 246 | 0.0 | 0.9 | 0.00 | 2.00 | 1.98 | 84 | 1012.0 |
| 20260510031830 | 79 | 246 | 0.0 | 1.7 | 0.00 | 2.00 | 1.98 | 84 | 1011.9 |
| 20260510031557 | 78 | 0 | 0.0 | 1.7 | 0.00 | 2.00 | 1.98 | 83 | 1012.0 |
| 20260510031330 | 79 | 205 | 0.0 | 1.7 | 0.00 | 2.00 | 1.98 | 84 | 1011.8 |
| 20260510030831 | 79 | 229 | 0.0 | 0.0 | 0.00 | 2.00 | 1.98 | 83 | 1011.7 |
| 20260510030330 | 79 | 229 | 0.0 | 0.0 | 0.00 | 2.00 | 1.98 | 83 | 1011.6 |
| 20260510030105 | 79 | 0 | 0.0 | 0.9 | 0.00 | 2.00 | 1.98 | 82 | 1011.8 |
| 20260510025829 | 79 | 97 | 0.0 | 0.9 | 0.00 | 2.00 | 1.98 | 82 | 1011.7 |
| 20260510025329 | 79 | 181 | 0.0 | 0.9 | 0.00 | 2.00 | 1.98 | 82 | 1011.6 |
| 20260510024829 | 79 | 330 | 0.0 | 0.0 | 0.00 | 2.00 | 1.98 | 82 | 1011.3 |
| 20260510024553 | 79 | 0 | 0.0 | 0.9 | 0.00 | 2.00 | 1.98 | 81 | 1011.7 |
| 20260510024329 | 80 | 330 | 0.0 | 0.9 | 0.00 | 2.00 | 1.98 | 81 | 1011.3 |
| 20260510023829 | 80 | 247 | 0.0 | 3.5 | 0.00 | 2.00 | 1.98 | 80 | 1011.2 |
| 20260510023328 | 80 | 341 | 0.0 | 3.5 | 0.00 | 2.00 | 1.98 | 80 | 1011.1 |
| 20260510023053 | 80 | 0 | 0.0 | 1.7 | 0.00 | 2.00 | 1.98 | 79 | 1011.5 |
| 20260510022828 | 80 | 146 | 0.0 | 0.9 | 0.00 | 2.00 | 1.98 | 79 | 1011.0 |
| 20260510022539 | 80 | 224 | 0.0 | 1.7 | 0.00 | 2.00 | 1.98 | 78 | 1011.0 |
| 20260510022051 | 80 | 263 | 0.0 | 5.2 | 0.00 | 2.00 | 1.98 | 78 | 1010.8 |
| 20260510021552 | 80 | 0 | 0.0 | 5.2 | 0.00 | 2.00 | 1.98 | 77 | 1011.0 |
| 20260510021312 | 81 | 358 | 0.0 | 5.2 | 0.00 | 2.00 | 1.98 | 78 | 1010.9 |
| 20260510020812 | 81 | 348 | 0.0 | 2.6 | 0.00 | 2.00 | 1.98 | 77 | 1010.9 |
| 20260510020313 | 81 | 201 | 0.0 | 4.3 | 0.00 | 2.00 | 1.98 | 77 | 1010.7 |
| 20260510020051 | 80 | 56 | 0.0 | 5.2 | 0.00 | 2.00 | 1.98 | 76 | 1011.0 |
| 20260510015807 | 81 | 276 | 0.0 | 4.3 | 0.00 | 2.00 | 1.98 | 77 | 1010.7 |
| 20260510015306 | 81 | 60 | 0.0 | 2.6 | 0.00 | 2.00 | 1.98 | 76 | 1010.5 |
| 20260510014802 | 81 | 103 | 0.0 | 2.6 | 0.00 | 2.00 | 1.98 | 76 | 1010.3 |
| 20260510014556 | 81 | 0 | 0.0 | 2.6 | 0.00 | 2.00 | 1.98 | 75 | 1010.6 |
| 20260510014303 | 81 | 76 | 0.0 | 1.7 | 0.00 | 2.00 | 1.98 | 76 | 1010.2 |
| 20260510013805 | 81 | 269 | 0.0 | 2.6 | 0.00 | 2.00 | 1.98 | 76 | 1010.3 |
| 20260510013800 | 81 | 143 | 0.9 | 5.2 | 0.00 | 2.00 | 1.98 | 76 | 1010.2 |
| 20260510013053 | 81 | 56 | 0.0 | 5.2 | 0.00 | 2.00 | 1.98 | 75 | 1010.5 |
| 20260510012814 | 81 | 250 | 1.7 | 5.2 | 0.00 | 2.00 | 1.98 | 76 | 1010.0 |
| 20260510012300 | 81 | 337 | 0.0 | 2.6 | 0.00 | 2.00 | 1.98 | 76 | 1010.2 |
| 20260510011801 | 81 | 215 | 0.0 | 2.6 | 0.00 | 2.00 | 1.98 | 76 | 1010.2 |
| 20260510011549 | 81 | 214 | 0.0 | 2.6 | 0.00 | 2.00 | 1.98 | 75 | 1010.4 |
| 20260510011301 | 82 | 241 | 0.9 | 2.6 | 0.00 | 2.00 | 1.98 | 76 | 1010.1 |
| 20260510010801 | 82 | 194 | 0.0 | 5.2 | 0.00 | 2.00 | 1.98 | 75 | 1010.0 |
| 20260510010301 | 82 | 283 | 1.7 | 5.2 | 0.00 | 2.00 | 1.98 | 75 | 1009.9 |
| 20260510010052 | 81 | 39 | 0.0 | 4.3 | 0.00 | 2.00 | 1.98 | 74 | 1010.2 |
| 20260510005801 | 82 | 233 | 0.0 | 4.3 | 0.00 | 2.00 | 1.98 | 75 | 1009.9 |
| 20260510005301 | 82 | 328 | 0.9 | 7.0 | 0.00 | 2.00 | 1.98 | 74 | 1009.8 |
| 20260510004802 | 82 | 251 | 0.9 | 7.0 | 0.00 | 2.00 | 1.98 | 74 | 1009.8 |
| 20260510004749 | 82 | 205 | 0.9 | 7.0 | 0.00 | 2.00 | 1.98 | 74 | 1009.8 |
| 20260510004547 | 82 | 0 | 0.0 | 7.8 | 0.00 | 2.00 | 1.98 | 74 | 1010.0 |
| 20260510003802 | 83 | 337 | 0.0 | 7.0 | 0.00 | 2.00 | 1.98 | 74 | 1009.7 |
| 20260510003549 | 83 | 349 | 0.9 | 4.3 | 0.00 | 2.00 | 1.98 | 74 | 1009.7 |
| 20260510003057 | 82 | 0 | 0.0 | 7.0 | 0.00 | 2.00 | 1.98 | 73 | 1009.9 |
| 20260510002814 | 83 | 191 | 0.0 | 7.8 | 0.00 | 2.00 | 1.98 | 74 | 1009.7 |
| 20260510002747 | 83 | 300 | 1.7 | 7.8 | 0.00 | 2.00 | 1.98 | 73 | 1009.6 |
| 20260510002033 | 83 | 153 | 1.7 | 4.3 | 0.00 | 2.00 | 1.98 | 73 | 1009.5 |
| 20260510001554 | 83 | 0 | 0.0 | 4.3 | 0.00 | 2.00 | 1.98 | 72 | 1009.7 |
| 20260510001302 | 83 | 42 | 0.0 | 5.2 | 0.00 | 2.00 | 1.98 | 73 | 1009.3 |
| 20260510001020 | 84 | 84 | 0.0 | 5.2 | 0.00 | 2.00 | 1.98 | 73 | 1009.4 |
| 20260510000315 | 84 | 233 | 0.0 | 5.2 | 0.00 | 2.00 | 1.98 | 72 | 1009.4 |
| 20260510000058 | 83 | 0 | 0.0 | 4.3 | 0.00 | 2.00 | 1.98 | 71 | 1009.7 |
| 20260509235802 | 84 | 345 | 0.0 | 5.2 | 0.00 | 2.00 | 1.98 | 71 | 1009.3 |
| 20260509235301 | 84 | 263 | 0.0 | 6.1 | 0.00 | 2.00 | 1.98 | 70 | 1009.4 |
| 20260509234801 | 84 | 195 | 1.7 | 6.1 | 0.00 | 2.00 | 1.98 | 70 | 1009.3 |
| 20260509234602 | 83 | 124 | 0.9 | 5.2 | 0.00 | 2.00 | 1.98 | 69 | 1009.6 |
| 20260509234301 | 84 | 243 | 0.9 | 5.2 | 0.00 | 2.00 | 1.98 | 70 | 1009.3 |
| 20260509233801 | 84 | 325 | 0.9 | 4.3 | 0.00 | 2.00 | 1.98 | 69 | 1009.2 |
| 20260509233301 | 84 | 38 | 0.0 | 0.9 | 0.00 | 2.00 | 1.98 | 70 | 1009.3 |
| 20260509233054 | 84 | 0 | 0.0 | 6.1 | 0.00 | 2.00 | 1.98 | 70 | 1009.5 |
| 20260509232801 | 85 | 337 | 0.0 | 6.1 | 0.00 | 2.00 | 1.98 | 70 | 1009.3 |
| 20260509232301 | 85 | 353 | 0.9 | 7.0 | 0.00 | 2.00 | 1.98 | 70 | 1009.3 |
| 20260509231802 | 85 | 243 | 1.7 | 7.0 | 0.00 | 2.00 | 1.98 | 70 | 1009.1 |
| 20260509231609 | 84 | 252 | 0.9 | 7.8 | 0.00 | 2.00 | 1.98 | 69 | 1009.5 |
| 20260509231302 | 85 | 153 | 0.0 | 6.1 | 0.00 | 2.00 | 1.98 | 70 | 1009.2 |
| 20260509230802 | 85 | 143 | 0.9 | 5.2 | 0.00 | 2.00 | 1.98 | 70 | 1009.2 |
| 20260509230302 | 85 | 355 | 0.0 | 5.2 | 0.00 | 2.00 | 1.98 | 70 | 1009.1 |
| 20260509230103 | 85 | 0 | 0.0 | 5.2 | 0.00 | 2.00 | 1.98 | 70 | 1009.4 |
| 20260509225802 | 85 | 338 | 0.0 | 5.2 | 0.00 | 2.00 | 1.98 | 71 | 1009.1 |
| 20260509225305 | 85 | 124 | 1.7 | 8.7 | 0.00 | 2.00 | 1.98 | 71 | 1009.1 |
| 20260509225244 | 85 | 116 | 0.9 | 8.7 | 0.00 | 2.00 | 1.98 | 71 | 1009.2 |
| 20260509224551 | 85 | 0 | 1.7 | 7.8 | 0.00 | 2.00 | 1.98 | 71 | 1009.5 |
| 20260509224303 | 85 | 9 | 3.5 | 7.8 | 0.00 | 2.00 | 1.98 | 71 | 1009.3 |
| 20260509223803 | 86 | 185 | 0.9 | 11.3 | 0.00 | 2.00 | 1.98 | 71 | 1009.2 |
| 20260509223303 | 87 | 186 | 1.7 | 11.3 | 0.00 | 2.00 | 1.98 | 69 | 1009.2 |
| 20260509223051 | 87 | 0 | 0.0 | 2.6 | 0.00 | 2.00 | 1.98 | 67 | 1009.4 |
| 20260509222802 | 87 | 216 | 0.0 | 3.5 | 0.00 | 2.00 | 1.98 | 67 | 1009.1 |
| 20260509222306 | 87 | 90 | 0.0 | 3.5 | 0.00 | 2.00 | 1.98 | 67 | 1009.0 |
| 20260509221755 | 88 | 253 | 0.0 | 0.9 | 0.00 | 2.00 | 1.98 | 67 | 1009.1 |
| 20260509221549 | 88 | 0 | 0.0 | 1.7 | 0.00 | 2.00 | 1.98 | 66 | 1009.4 |
| 20260509221248 | 88 | 272 | 0.0 | 1.7 | 0.00 | 2.00 | 1.98 | 67 | 1009.2 |
| 20260509221003 | 88 | 214 | 0.0 | 1.7 | 0.00 | 2.00 | 1.98 | 66 | 1009.1 |
| 20260509220241 | 89 | 57 | 0.0 | 0.9 | 0.00 | 2.00 | 1.98 | 66 | 1009.0 |
| 20260509220050 | 88 | 0 | 0.0 | 0.9 | 0.00 | 2.00 | 1.98 | 66 | 1009.4 |
| 20260509215738 | 89 | 231 | 0.0 | 1.7 | 0.00 | 2.00 | 1.98 | 65 | 1009.0 |
| 20260509215239 | 89 | 282 | 0.0 | 1.7 | 0.00 | 2.00 | 1.98 | 66 | 1009.1 |
| 20260509214739 | 89 | 62 | 0.0 | 0.9 | 0.00 | 2.00 | 1.98 | 65 | 1009.2 |
| 20260509214545 | 89 | 0 | 0.0 | 0.9 | 0.00 | 2.00 | 1.98 | 65 | 1009.4 |
| 20260509214238 | 90 | 191 | 0.0 | 0.9 | 0.00 | 2.00 | 1.98 | 65 | 1009.0 |
| 20260509214001 | 90 | 288 | 0.0 | 0.0 | 0.00 | 2.00 | 1.98 | 64 | 1009.0 |
| 20260509213502 | 90 | 288 | 0.0 | 1.7 | 0.00 | 2.00 | 1.98 | 64 | 1009.0 |
| 20260509213049 | 90 | 0 | 0.0 | 0.9 | 0.00 | 2.00 | 1.98 | 63 | 1009.4 |
| 20260509212739 | 90 | 288 | 0.0 | 1.7 | 0.00 | 2.00 | 1.98 | 63 | 1009.1 |
| 20260509212232 | 91 | 288 | 0.0 | 3.5 | 0.00 | 2.00 | 1.98 | 63 | 1009.1 |
| 20260509211729 | 91 | 197 | 0.0 | 3.5 | 0.00 | 2.00 | 1.98 | 63 | 1009.2 |
| 20260509211552 | 91 | 0 | 0.0 | 3.5 | 0.00 | 2.00 | 1.98 | 61 | 1009.5 |
| 20260509211230 | 92 | 207 | 0.0 | 0.0 | 0.00 | 2.00 | 1.98 | 62 | 1009.2 |
| 20260509210729 | 92 | 207 | 0.0 | 0.0 | 0.00 | 2.00 | 1.98 | 64 | 1009.0 |
| 20260509210230 | 92 | 207 | 0.0 | 0.0 | 0.00 | 2.00 | 1.98 | 63 | 1009.1 |
| 20260509210105 | 91 | 0 | 0.0 | 0.9 | 0.00 | 2.00 | 1.98 | 63 | 1009.4 |
| 20260509205729 | 91 | 207 | 0.0 | 0.9 | 0.00 | 2.00 | 1.98 | 63 | 1009.3 |
| 20260509205228 | 92 | 205 | 0.0 | 0.9 | 0.00 | 2.00 | 1.98 | 61 | 1009.2 |
| 20260509204948 | 93 | 207 | 0.0 | 0.0 | 0.00 | 2.00 | 1.98 | 61 | 1009.3 |
| 20260509204550 | 92 | 0 | 0.0 | 0.0 | 0.00 | 2.00 | 1.98 | 62 | 1009.7 |
| 20260509204231 | 93 | 21 | 0.0 | 0.0 | 0.00 | 2.00 | 1.98 | 60 | 1009.4 |
| 20260509203730 | 93 | 21 | 0.0 | 0.0 | 0.00 | 2.00 | 1.98 | 61 | 1009.4 |
| 20260509203244 | 92 | 21 | 0.0 | 0.0 | 0.00 | 2.00 | 1.98 | 62 | 1009.5 |
| 20260509203059 | 92 | 0 | 0.0 | 0.9 | 0.00 | 2.00 | 1.98 | 62 | 1009.8 |
| 20260509202730 | 92 | 21 | 0.0 | 0.9 | 0.00 | 2.00 | 1.98 | 62 | 1009.5 |
| 20260509202231 | 92 | 325 | 0.0 | 0.9 | 0.00 | 2.00 | 1.98 | 61 | 1009.4 |
| 20260509202015 | 93 | 114 | 0.0 | 0.0 | 0.00 | 2.00 | 1.98 | 59 | 1009.5 |
| 20260509201557 | 93 | 0 | 0.0 | 0.0 | 0.00 | 2.00 | 1.98 | 59 | 1009.8 |
| 20260509201230 | 93 | 99 | 0.0 | 0.0 | 0.00 | 2.00 | 1.98 | 59 | 1009.6 |
| 20260509200730 | 93 | 99 | 0.0 | 0.9 | 0.00 | 2.00 | 1.98 | 62 | 1009.7 |
| 20260509200231 | 93 | 99 | 0.0 | 0.9 | 0.00 | 2.00 | 1.98 | 61 | 1009.7 |
| 20260509200052 | 92 | 0 | 0.0 | 0.0 | 0.00 | 2.00 | 1.98 | 62 | 1010.1 |
| 20260509195729 | 92 | 196 | 0.0 | 0.0 | 0.00 | 2.00 | 1.98 | 63 | 1009.7 |
| 20260509195229 | 92 | 196 | 0.0 | 0.0 | 0.00 | 2.00 | 1.98 | 62 | 1009.8 |
| 20260509194728 | 92 | 134 | 0.0 | 0.0 | 0.00 | 2.00 | 1.98 | 61 | 1009.9 |
| 20260509194547 | 92 | 0 | 0.0 | 0.9 | 0.00 | 2.00 | 1.98 | 60 | 1010.2 |
| 20260509194230 | 92 | 134 | 0.0 | 0.0 | 0.00 | 2.00 | 1.98 | 63 | 1010.0 |
| 20260509193729 | 91 | 72 | 0.0 | 0.0 | 0.00 | 2.00 | 1.98 | 63 | 1010.1 |
| 20260509193229 | 91 | 72 | 0.0 | 0.0 | 0.00 | 2.00 | 1.98 | 64 | 1010.3 |
| 20260509193053 | 91 | 0 | 0.0 | 0.0 | 0.00 | 2.00 | 1.98 | 64 | 1010.6 |
| 20260509192729 | 91 | 72 | 0.0 | 0.0 | 0.00 | 2.00 | 1.98 | 64 | 1010.4 |
| 20260509192229 | 91 | 72 | 0.0 | 0.0 | 0.00 | 2.00 | 1.98 | 65 | 1010.4 |
| 20260509191729 | 91 | 72 | 0.0 | 0.0 | 0.00 | 2.00 | 1.98 | 65 | 1010.4 |
| 20260509191553 | 90 | 0 | 0.0 | 0.0 | 0.00 | 2.00 | 1.98 | 65 | 1010.7 |
| 20260509191228 | 90 | 72 | 0.0 | 0.0 | 0.00 | 2.00 | 1.98 | 66 | 1010.4 |
| 20260509190726 | 90 | 72 | 0.0 | 0.0 | 0.00 | 2.00 | 1.98 | 65 | 1010.3 |
| 20260509190213 | 89 | 72 | 0.0 | 0.9 | 0.00 | 2.00 | 1.98 | 65 | 1010.3 |
| 20260509190054 | 89 | 0 | 0.0 | 0.9 | 0.00 | 2.00 | 1.98 | 67 | 1010.6 |
| 20260509185930 | 89 | 72 | 0.0 | 0.9 | 0.00 | 2.00 | 1.98 | 65 | 1010.3 |
| 20260509185431 | 90 | 263 | 0.0 | 0.0 | 0.00 | 2.00 | 1.98 | 64 | 1010.5 |
| 20260509184702 | 90 | 263 | 0.0 | 0.0 | 0.00 | 2.00 | 1.98 | 66 | 1010.5 |
| 20260509184556 | 89 | 0 | 0.0 | 0.0 | 0.00 | 2.00 | 1.98 | 66 | 1010.8 |
| 20260509184203 | 89 | 263 | 0.0 | 0.0 | 0.00 | 2.00 | 1.98 | 65 | 1010.5 |
| 20260509183702 | 89 | 263 | 0.0 | 0.0 | 0.00 | 2.00 | 1.98 | 67 | 1010.6 |
| 20260509183202 | 88 | 231 | 0.0 | 0.0 | 0.00 | 2.00 | 1.98 | 69 | 1010.7 |
| 20260509183052 | 87 | 0 | 0.0 | 0.9 | 0.00 | 2.00 | 1.98 | 68 | 1011.1 |
| 20260509182921 | 87 | 231 | 0.0 | 0.0 | 0.00 | 2.00 | 1.98 | 68 | 1010.9 |
| 20260509182202 | 87 | 355 | 0.0 | 3.5 | 0.00 | 2.00 | 1.98 | 70 | 1010.9 |
| 20260509181926 | 87 | 355 | 0.0 | 3.5 | 0.00 | 2.00 | 1.98 | 69 | 1011.0 |
| 20260509181553 | 86 | 0 | 0.0 | 3.5 | 0.00 | 2.00 | 1.98 | 69 | 1011.2 |
| 20260509181202 | 87 | 190 | 0.0 | 2.6 | 0.00 | 2.00 | 1.98 | 69 | 1010.9 |
| 20260509180702 | 87 | 257 | 0.0 | 2.6 | 0.00 | 2.00 | 1.98 | 72 | 1010.9 |
| 20260509180203 | 87 | 127 | 0.0 | 2.6 | 0.00 | 2.00 | 1.98 | 69 | 1011.0 |
| 20260509180100 | 86 | 0 | 0.0 | 4.3 | 0.00 | 2.00 | 1.98 | 69 | 1011.2 |
| 20260509175702 | 86 | 295 | 0.0 | 4.3 | 0.00 | 2.00 | 1.98 | 72 | 1011.0 |
| 20260509175203 | 85 | 77 | 0.0 | 4.3 | 0.00 | 2.00 | 1.98 | 72 | 1011.1 |
| 20260509174702 | 85 | 280 | 0.0 | 1.7 | 0.00 | 2.00 | 1.98 | 73 | 1011.2 |
| 20260509174555 | 84 | 0 | 0.0 | 0.9 | 0.00 | 2.00 | 1.98 | 72 | 1011.5 |
| 20260509174200 | 84 | 301 | 0.0 | 2.6 | 0.00 | 2.00 | 1.98 | 73 | 1011.3 |
| 20260509173949 | 84 | 299 | 0.0 | 2.6 | 0.00 | 2.00 | 1.98 | 74 | 1011.4 |
| 20260509173201 | 83 | 293 | 0.0 | 1.7 | 0.00 | 2.00 | 1.98 | 75 | 1011.6 |
| 20260509173057 | 83 | 0 | 0.0 | 2.6 | 0.00 | 2.00 | 1.98 | 74 | 1011.7 |
| 20260509172701 | 83 | 44 | 0.0 | 5.2 | 0.00 | 2.00 | 1.98 | 74 | 1011.4 |
| 20260509172200 | 83 | 33 | 0.0 | 5.2 | 0.00 | 2.00 | 1.98 | 75 | 1011.3 |
| 20260509171700 | 83 | 150 | 0.0 | 4.3 | 0.00 | 2.00 | 1.98 | 75 | 1011.4 |
| 20260509171549 | 83 | 0 | 0.0 | 5.2 | 0.00 | 2.00 | 1.98 | 75 | 1011.6 |
| 20260509171201 | 83 | 203 | 0.9 | 4.3 | 0.00 | 2.00 | 1.98 | 75 | 1011.3 |
| 20260509170703 | 83 | 254 | 0.0 | 4.3 | 0.00 | 2.00 | 1.98 | 77 | 1011.2 |
| 20260509170203 | 83 | 115 | 0.0 | 5.2 | 0.00 | 2.00 | 1.98 | 79 | 1011.2 |
| 20260509170100 | 82 | 0 | 0.0 | 7.0 | 0.00 | 2.00 | 1.98 | 78 | 1011.6 |
| 20260509165702 | 82 | 278 | 1.7 | 6.1 | 0.00 | 2.00 | 1.98 | 79 | 1011.2 |
| 20260509165426 | 82 | 282 | 1.7 | 6.1 | 0.00 | 2.00 | 1.98 | 79 | 1011.3 |
| 20260509164702 | 82 | 230 | 0.9 | 5.2 | 0.00 | 2.00 | 1.98 | 79 | 1011.4 |
| 20260509164549 | 81 | 0 | 1.7 | 9.6 | 0.00 | 2.00 | 1.98 | 79 | 1011.7 |
| 20260509164201 | 81 | 128 | 0.9 | 7.8 | 0.00 | 2.00 | 1.98 | 80 | 1011.6 |
| 20260509163702 | 80 | 94 | 2.6 | 7.8 | 0.00 | 2.00 | 1.98 | 80 | 1011.7 |
| 20260509163202 | 80 | 215 | 0.0 | 6.1 | 0.00 | 2.00 | 1.98 | 86 | 1011.7 |
| 20260509163102 | 79 | 0 | 0.9 | 6.1 | 0.00 | 2.00 | 1.98 | 84 | 1012.0 |
| 20260509162702 | 79 | 122 | 2.6 | 7.0 | 0.00 | 2.00 | 1.98 | 85 | 1011.8 |
| 20260509162648 | 78 | 53 | 1.7 | 7.0 | 0.00 | 2.00 | 1.98 | 88 | 1011.9 |
| 20260509161702 | 77 | 290 | 1.7 | 7.8 | 0.00 | 2.00 | 1.98 | 92 | 1012.0 |
| 20260509161643 | 76 | 108 | 0.9 | 7.8 | 0.00 | 2.00 | 1.98 | 97 | 1012.1 |
| 20260509161555 | 76 | 103 | 1.7 | 7.8 | 0.00 | 2.00 | 1.98 | 93 | 1012.2 |
| 20260509160702 | 74 | 177 | 1.7 | 4.3 | 0.00 | 2.00 | 1.98 | 97 | 1012.2 |
| 20260509160203 | 73 | 37 | 1.7 | 6.1 | 0.00 | 2.00 | 1.98 | 98 | 1012.3 |
| 20260509160057 | 73 | 233 | 0.9 | 6.1 | 0.00 | 2.00 | 1.98 | 97 | 1012.5 |
| 20260509155702 | 73 | 220 | 0.9 | 6.1 | 0.00 | 2.00 | 1.98 | 98 | 1012.3 |
| 20260509155202 | 72 | 65 | 0.9 | 7.8 | 0.00 | 2.00 | 1.98 | 98 | 1012.3 |
| 20260509154702 | 71 | 191 | 1.7 | 7.8 | 0.00 | 2.00 | 1.98 | 97 | 1012.2 |
| 20260509154558 | 71 | 0 | 2.6 | 7.8 | 0.00 | 2.00 | 1.98 | 97 | 1012.4 |
| 20260509154420 | 71 | 123 | 1.7 | 7.8 | 0.01 | 2.00 | 1.98 | 97 | 1012.2 |
| 20260509153920 | 71 | 131 | 0.9 | 5.2 | 0.04 | 2.00 | 1.98 | 97 | 1012.3 |
| 20260509153202 | 70 | 138 | 1.7 | 7.0 | 0.12 | 2.00 | 1.98 | 97 | 1012.6 |
| 20260509153050 | 70 | 203 | 0.9 | 7.0 | 0.16 | 2.00 | 1.98 | 97 | 1012.9 |
| 20260509152702 | 70 | 295 | 1.7 | 7.0 | 0.41 | 2.00 | 1.98 | 97 | 1012.8 |
| 20260509152201 | 70 | 202 | 0.9 | 6.1 | 0.74 | 2.00 | 1.98 | 97 | 1012.9 |
| 20260509151701 | 70 | 154 | 1.7 | 6.1 | 1.08 | 2.00 | 1.98 | 97 | 1012.8 |
| 20260509151553 | 70 | 352 | 0.9 | 6.1 | 1.14 | 2.00 | 1.98 | 97 | 1012.9 |
| 20260509151201 | 70 | 192 | 1.7 | 3.5 | 1.40 | 2.00 | 1.98 | 97 | 1012.8 |
| 20260509150921 | 70 | 342 | 0.0 | 4.3 | 1.84 | 2.00 | 1.98 | 97 | 1012.8 |
| 20260509150203 | 70 | 137 | 0.9 | 5.2 | 1.88 | 2.00 | 1.98 | 97 | 1012.8 |
| 20260509150106 | 69 | 130 | 0.0 | 8.7 | 1.88 | 2.00 | 1.98 | 97 | 1012.8 |
| 20260509145702 | 70 | 24 | 0.9 | 8.7 | 1.88 | 0.12 | 1.98 | 97 | 1012.6 |
| 20260509145202 | 70 | 317 | 3.5 | 9.6 | 1.88 | 0.12 | 1.98 | 97 | 1012.7 |
| 20260509144702 | 69 | 69 | 3.5 | 9.6 | 1.88 | 0.12 | 1.98 | 97 | 1012.6 |
| 20260509144556 | 69 | 94 | 0.9 | 9.6 | 1.88 | 2.00 | 1.98 | 97 | 1012.9 |
| 20260509144426 | 69 | 313 | 0.9 | 7.0 | 1.87 | 0.12 | 1.97 | 97 | 1013.0 |
| 20260509143703 | 69 | 230 | 0.9 | 8.7 | 1.86 | 0.12 | 1.93 | 97 | 1013.3 |
| 20260509143202 | 69 | 215 | 4.3 | 8.7 | 1.78 | 0.12 | 1.82 | 97 | 1013.6 |
| 20260509143053 | 68 | 179 | 2.6 | 10.4 | 1.73 | 1.83 | 1.81 | 96 | 1013.8 |
| 20260509142702 | 68 | 305 | 1.7 | 8.7 | 1.49 | 0.12 | 1.52 | 97 | 1014.0 |
| 20260509142202 | 68 | 184 | 0.9 | 8.7 | 1.16 | 0.12 | 1.16 | 96 | 1014.6 |
| 20260509141702 | 68 | 75 | 1.7 | 7.8 | 0.82 | 0.12 | 0.84 | 96 | 1014.9 |
| 20260509141552 | 68 | 348 | 0.9 | 14.8 | 0.74 | 0.84 | 0.82 | 95 | 1015.0 |
| 20260509141202 | 69 | 250 | 0.9 | 13.9 | 0.50 | 0.12 | 0.50 | 95 | 1014.8 |
| 20260509140925 | 70 | 287 | 7.0 | 13.9 | 0.06 | 0.12 | 0.11 | 95 | 1015.2 |
| 20260509140201 | 71 | 297 | 6.1 | 13.0 | 0.02 | 0.12 | 0.10 | 95 | 1013.8 |
| 20260509140043 | 71 | 250 | 6.1 | 13.9 | 0.02 | 0.12 | 0.10 | 95 | 1014.1 |
| 20260509135920 | 72 | 339 | 0.9 | 7.8 | 0.02 | 0.10 | 0.10 | 97 | 1013.6 |
| 20260509135201 | 72 | 280 | 0.0 | 0.0 | 0.02 | 0.10 | 0.10 | 97 | 1011.6 |
| 20260509134701 | 72 | 315 | 0.0 | 1.7 | 0.02 | 0.10 | 0.10 | 97 | 1011.2 |
| 20260509134548 | 71 | 0 | 0.0 | 4.3 | 0.02 | 0.12 | 0.10 | 96 | 1011.6 |
| 20260509134200 | 71 | 110 | 0.0 | 2.6 | 0.02 | 0.10 | 0.09 | 97 | 1011.2 |
| 20260509133720 | 71 | 152 | 0.0 | 5.2 | 0.00 | 0.10 | 0.08 | 97 | 1011.6 |
| 20260509133202 | 71 | 191 | 0.0 | 5.2 | 0.00 | 0.10 | 0.08 | 97 | 1011.7 |
| 20260509133057 | 71 | 0 | 0.0 | 6.1 | 0.00 | 0.10 | 0.08 | 96 | 1012.1 |
| 20260509132933 | 71 | 285 | 0.0 | 3.5 | 0.00 | 0.10 | 0.08 | 97 | 1012.0 |
| 20260509132215 | 71 | 167 | 0.0 | 3.5 | 0.00 | 0.10 | 0.08 | 97 | 1012.0 |
| 20260509131702 | 71 | 311 | 0.0 | 1.7 | 0.00 | 0.10 | 0.08 | 97 | 1012.1 |
| 20260509131547 | 71 | 0 | 0.0 | 0.0 | 0.00 | 0.10 | 0.08 | 96 | 1012.2 |
| 20260509131200 | 71 | 186 | 0.0 | 3.5 | 0.00 | 0.10 | 0.08 | 97 | 1011.9 |